Probability
32 32 35 35 32 32 32 32 26 26 19 16 13 13 16 13 13 13 26 32 26 32 32 32 42 39 32 29 26 26 26 19 26 23 16 23 32 23 23 19 26 29 29
35 39 35 35 29 29 29 29 26 32 26 19 16 16 16 13 19 23 23 29 19 29 39 39 39 42 39 29 29 26 26 23 29 16 13 10 16 16 23 19 19 19 23
35 39 32 29 35 29 23 29 29 29 26 23 16 16 19 19 16 19 26 26 19 26 35 39 42 39 39 32 29 26 29 29 26 23 13 16 19 23 23 16 19 19 19
32 35 26 35 39 26 29 29 23 26 29 26 26 16 19 26 26 26 26 26 26 16 32 39 35 29 32 39 42 35 32 23 23 23 19 19 19 16 16 16 16 16 13
32 32 35 35 32 29 32 26 26 35 29 29 16 29 19 26 26 23 26 23 26 29 26 32 32 35 32 35 32 32 26 26 35 23 19 16 13 6 13 10 10 13 13
32 29 29 29 26 29 35 39 32 39 29 26 3 13 26 32 26 23 23 19 29 26 19 23 29 26 32 32 35 39 35 35 26 23 16 16 10 10 6 3 10 10 13
23 26 29 32 29 32 35 29 29 23 19 26 23 26 16 16 19 26 23 23 19 23 23 23 23 26 26 16 13 19 32 29 29 26 19 16 10 10 10 6 6 6 6
26 26 29 26 29 42 35 26 29 26 23 26 23 19 19 16 13 10 23 26 16 26 26 19 26 45 32 35 23 19 19 26 26 29 26 23 16 16 10 6 6 6 6
32 29 29 26 32 26 32 35 35 35 29 26 19 26 16 19 16 19 26 26 29 32 29 32 39 39 42 39 35 16 16 19 29 29 29 23 23 19 13 13 13 10 10
39 39 39 32 35 29 35 29 32 32 39 29 26 35 32 26 26 19 26 32 32 39 29 19 23 26 29 29 26 19 16 16 19 23 29 29 26 19 19 16 10 13 13
35 32 35 39 48 32 29 29 35 35 35 32 23 23 23 26 13 23 16 26 19 19 29 32 26 23 26 26 26 19 3 0 10 19 23 29 29 23 23 19 19 19 16
32 32 32 39 35 29 35 35 35 32 48 48 39 29 32 26 23 19 23 16 19 19 19 23 23 23 23 23 19 10 0 0 3 6 6 10 16 19 19 19 23 19 19
26 32 29 42 39 35 35 39 42 39 32 39 39 26 26 35 35 32 26 19 16 13 23 16 26 26 26 19 19 3 0 0 0 3 3 3 6 6 6 13 13 13 19
32 32 32 35 32 29 29 42 26 32 35 35 29 42 35 19 23 39 35 26 19 13 10 10 19 23 16 19 6 0 13 0 0 0 0 0 0 3 6 6 6 3 10
32 39 39 32 29 29 32 32 29 32 32 29 26 32 32 26 29 32 32 35 19 13 3 10 10 13 23 26 16 16 23 3 0 0 0 0 0 0 3 3 0 0 0
42 39 39 35 32 26 26 32 29 29 29 35 32 32 32 23 23 23 19 19 23 19 19 13 23 13 23 13 13 16 19 6 3 0 0 0 0 0 0 0 0 0 0
45 45 42 35 26 26 26 26 26 23 29 32 29 26 29 26 23 19 19 23 19 23 23 16 16 19 26 26 19 23 19 23 13 0 0 0 0 0 0 0 0 0 0
35 39 39 35 23 23 26 26 26 26 26 23 29 26 23 23 26 23 23 16 16 16 16 16 19 16 19 26 29 26 19 13 16 3 0 0 0 0 0 0 0 0 0
39 35 32 29 26 26 26 26 26 26 26 23 23 23 19 26 19 19 29 19 16 16 16 16 16 19 19 26 26 23 16 23 13 6 0 0 0 0 0 0 0 0 0
35 35 29 26 23 23 19 19 23 19 19 19 19 19 19 16 16 16 16 16 16 19 19 13 13 13 19 19 26 23 13 16 13 10 6 0 0 0 0 0 0 0 0
35 32 26 23 23 23 19 19 19 19 19 19 19 19 13 10 10 10 13 13 13 13 16 16 13 10 13 23 16 13 13 16 19 13 13 13 6 6 0 0 0 0 0
32 29 26 23 19 19 13 10 10 19 19 19 19 19 16 6 6 0 0 0 0 13 13 19 13 19 19 19 23 16 16 16 16 16 19 13 13 13 13 3 0 0 0
35 32 26 23 23 23 3 3 3 19 19 19 16 16 13 6 6 6 3 0 0 3 0 16 13 19 16 16 19 23 26 16 16 16 13 16 10 10 13 3 0 0 0
32 29 26 23 23 19 3 3 3 13 16 16 16 16 13 13 3 6 6 3 3 3 3 3 6 6 10 10 19 19 26 23 23 19 13 10 10 10 10 10 0 0 0
32 29 19 16 16 13 3 3 0 16 16 16 13 13 13 13 3 3 3 6 6 6 3 3 3 3 3 6 6 10 10 13 13 13 13 13 10 10 6 10 0 0 0
23 16 10 10 10 10 3 3 3 10 10 10 13 13 6 6 3 3 3 10 10 6 3 3 3 3 3 6 0 6 10 10 10 10 10 13 10 10 10 10 10 0 0
Height
5873 5872 5870 5869 5868 5866 5864 5863 5864 5865 5866 5867 5867 5868 5869 5870 5872 5873 5874 5874 5875 5875 5875 5876 5876 5876 5876 5876 5876 5875 5875 5875 5875 5874 5874 5874 5874 5874 5874 5874 5875 5875 5875
5874 5873 5871 5870 5868 5867 5865 5865 5865 5865 5866 5867 5867 5868 5869 5870 5871 5872 5873 5873 5874 5874 5874 5875 5875 5874 5875 5875 5874 5874 5873 5873 5872 5872 5872 5872 5871 5871 5872 5872 5872 5873 5873
5874 5873 5872 5871 5869 5868 5867 5866 5866 5867 5867 5867 5868 5868 5869 5870 5870 5871 5871 5872 5873 5873 5873 5873 5873 5873 5873 5873 5873 5872 5871 5871 5870 5870 5870 5869 5869 5869 5869 5869 5870 5870 5870
5875 5874 5873 5872 5870 5869 5868 5868 5868 5868 5868 5868 5868 5868 5868 5869 5869 5870 5870 5871 5871 5871 5871 5872 5872 5872 5872 5871 5871 5870 5870 5869 5868 5868 5867 5867 5867 5867 5867 5867 5867 5867 5868
5875 5875 5874 5872 5871 5870 5869 5869 5869 5868 5868 5867 5867 5867 5868 5868 5868 5868 5869 5869 5870 5870 5870 5870 5870 5870 5870 5869 5868 5868 5867 5866 5866 5865 5865 5865 5864 5864 5864 5864 5864 5865 5865
5876 5875 5874 5872 5871 5870 5869 5869 5868 5868 5868 5867 5867 5867 5867 5867 5867 5867 5867 5867 5868 5868 5868 5868 5868 5868 5867 5867 5866 5865 5864 5864 5863 5862 5862 5862 5862 5862 5862 5861 5861 5862 5862
5876 5875 5873 5872 5871 5870 5870 5869 5868 5868 5867 5866 5866 5866 5866 5866 5866 5866 5866 5866 5866 5866 5866 5866 5866 5865 5865 5864 5863 5862 5862 5861 5860 5860 5859 5859 5859 5859 5859 5858 5858 5859 5859
5876 5875 5873 5872 5871 5870 5869 5868 5868 5867 5866 5866 5866 5865 5865 5866 5865 5865 5865 5865 5864 5864 5864 5864 5863 5863 5862 5862 5861 5860 5858 5857 5857 5856 5856 5856 5855 5855 5855 5855 5855 5855 5856
5875 5874 5873 5871 5870 5869 5868 5868 5867 5866 5865 5865 5865 5864 5864 5864 5863 5863 5863 5862 5862 5861 5861 5861 5861 5860 5859 5859 5858 5856 5855 5854 5853 5853 5852 5852 5852 5852 5852 5852 5852 5852 5852
5874 5873 5872 5871 5869 5868 5867 5866 5865 5865 5864 5864 5863 5862 5862 5861 5861 5861 5861 5860 5860 5859 5859 5858 5857 5857 5856 5855 5854 5853 5852 5851 5850 5849 5848 5848 5848 5848 5848 5848 5848 5848 5849
5873 5872 5871 5869 5868 5867 5866 5865 5864 5863 5863 5862 5861 5860 5860 5859 5859 5859 5858 5858 5857 5856 5856 5855 5854 5854 5853 5852 5851 5849 5848 5847 5846 5845 5844 5844 5844 5844 5844 5844 5844 5844 5844
5871 5870 5869 5868 5866 5865 5864 5863 5862 5861 5861 5860 5859 5858 5858 5857 5856 5856 5855 5855 5854 5853 5853 5852 5851 5850 5849 5848 5847 5846 5844 5843 5842 5841 5840 5840 5840 5839 5839 5839 5839 5839 5840
5869 5868 5866 5865 5864 5863 5862 5860 5859 5859 5858 5857 5856 5855 5855 5854 5853 5853 5852 5852 5851 5850 5849 5848 5847 5846 5845 5844 5843 5842 5841 5840 5839 5837 5836 5835 5835 5834 5834 5834 5835 5835 5835
5866 5865 5864 5862 5861 5860 5859 5858 5857 5855 5855 5854 5853 5852 5851 5851 5850 5849 5849 5848 5847 5847 5845 5844 5843 5842 5841 5840 5839 5838 5837 5835 5835 5833 5832 5831 5830 5830 5830 5830 5830 5830 5829
5863 5862 5860 5859 5858 5856 5855 5854 5853 5852 5851 5850 5849 5849 5848 5847 5846 5846 5845 5844 5843 5842 5841 5840 5839 5838 5837 5835 5834 5833 5832 5831 5830 5829 5827 5826 5826 5825 5825 5824 5824 5824 5824
5860 5858 5857 5855 5854 5852 5851 5850 5849 5848 5847 5846 5845 5844 5843 5843 5842 5841 5840 5839 5838 5837 5836 5835 5834 5833 5832 5831 5829 5829 5828 5826 5825 5824 5823 5822 5821 5820 5819 5819 5819 5818 5818
5856 5854 5853 5851 5850 5848 5847 5845 5844 5843 5842 5841 5840 5839 5838 5838 5837 5836 5835 5834 5833 5832 5831 5830 5829 5828 5827 5826 5824 5823 5822 5821 5820 5819 5818 5817 5816 5815 5814 5814 5813 5813 5812
5852 5850 5848 5847 5845 5843 5841 5840 5839 5837 5837 5836 5834 5833 5833 5832 5831 5830 5829 5828 5827 5826 5825 5824 5823 5822 5821 5820 5819 5818 5816 5815 5815 5813 5812 5811 5810 5809 5809 5808 5807 5807 5806
5847 5845 5843 5842 5840 5838 5836 5834 5833 5831 5830 5829 5828 5827 5826 5826 5824 5823 5822 5822 5821 5820 5819 5818 5817 5816 5815 5814 5813 5812 5810 5809 5808 5807 5806 5805 5804 5803 5803 5802 5801 5801 5800
5842 5840 5838 5836 5834 5832 5831 5829 5827 5825 5824 5823 5822 5821 5820 5819 5818 5817 5816 5815 5814 5813 5812 5811 5810 5809 5808 5807 5806 5805 5804 5803 5802 5801 5800 5799 5798 5797 5796 5795 5795 5794 5794
5837 5835 5833 5831 5829 5827 5825 5823 5821 5819 5818 5816 5815 5814 5813 5812 5810 5809 5808 5807 5807 5806 5805 5804 5803 5802 5801 5800 5800 5799 5798 5796 5795 5794 5793 5792 5791 5790 5789 5788 5788 5787 5787
5831 5829 5827 5825 5822 5820 5818 5817 5815 5813 5811 5809 5808 5807 5805 5804 5803 5802 5801 5800 5799 5798 5798 5797 5796 5795 5794 5793 5792 5791 5790 5789 5788 5788 5786 5785 5784 5783 5782 5781 5781 5780 5780
5825 5823 5820 5818 5816 5813 5812 5810 5808 5806 5804 5802 5801 5799 5798 5796 5795 5794 5793 5792 5791 5791 5790 5789 5788 5787 5786 5785 5784 5783 5782 5781 5780 5779 5778 5777 5776 5775 5774 5774 5773 5773 5772
5818 5815 5813 5811 5808 5806 5804 5802 5800 5798 5796 5794 5793 5791 5790 5788 5787 5785 5784 5784 5783 5782 5781 5781 5780 5779 5778 5776 5775 5775 5773 5772 5771 5770 5769 5769 5768 5767 5766 5765 5765 5764 5764
5810 5808 5805 5803 5801 5798 5796 5794 5792 5790 5788 5786 5784 5783 5781 5780 5778 5777 5776 5774 5774 5773 5772 5771 5771 5770 5769 5767 5766 5765 5764 5763 5763 5762 5760 5760 5759 5758 5758 5757 5756 5756 5756
5802 5800 5798 5795 5792 5790 5788 5786 5784 5782 5780 5778 5776 5774 5772 5771 5769 5768 5766 5765 5764 5764 5763 5762 5761 5761 5760 5758 5757 5756 5755 5754 5753 5752 5751 5751 5750 5749 5749 5749 5748 5748 5747
Wind_Speed
4 4 4 3 3 2 1 3 3 4 4 4 5 5 5 6 7 6 7 7 7 7 7 6 6 6 6 6 6 7 7 8 8 9 8 8 9 9 9 9 10 9 9
4 4 3 3 2 3 3 2 2 3 3 4 4 4 5 5 6 6 7 7 7 7 7 7 7 7 7 7 8 8 8 8 8 9 8 8 9 10 11 11 11 10 10
4 4 4 3 2 2 1 2 2 3 3 3 3 3 4 5 6 6 7 7 7 8 8 8 7 7 7 7 8 7 7 8 8 9 9 9 9 10 11 11 11 11 11
3 3 4 4 3 2 1 0 1 2 3 3 3 4 5 6 6 7 8 7 7 7 8 8 8 8 8 8 8 8 8 8 9 9 9 9 9 10 11 11 11 11 11
4 4 4 3 3 3 3 2 2 1 2 2 3 4 5 6 6 7 7 7 7 7 7 8 8 9 9 9 9 9 9 10 9 9 10 10 10 10 11 12 12 12 12
4 4 4 3 4 4 3 3 3 3 3 3 3 4 5 5 6 6 6 6 7 7 7 8 9 9 9 9 10 10 11 11 11 11 11 11 11 11 11 11 12 12 13
5 6 5 5 5 4 4 4 4 4 4 4 4 4 4 5 5 5 6 6 7 8 8 9 10 10 10 11 11 12 12 12 11 12 12 12 12 13 13 12 11 12 14
5 6 6 6 5 5 5 5 5 5 4 4 5 6 5 6 6 7 7 8 8 9 9 10 11 11 12 12 13 13 13 13 13 13 13 13 13 13 13 13 13 13 14
6 6 6 6 6 6 6 6 5 5 5 5 5 5 6 7 7 8 9 9 10 10 10 11 12 12 13 13 13 13 14 13 14 14 13 13 14 13 14 15 14 14 15
7 7 7 7 7 7 6 7 7 6 7 7 7 7 7 8 8 8 9 9 10 11 11 12 13 12 13 14 14 14 14 15 15 15 15 15 15 14 15 16 16 16 16
9 8 9 9 9 8 8 9 9 9 9 9 9 8 8 9 9 9 10 10 11 12 13 13 13 14 14 15 15 15 15 15 16 16 17 16 16 16 16 17 17 17 17
9 9 9 10 10 10 10 10 10 10 10 10 9 9 10 10 10 10 10 11 12 13 14 14 14 14 15 15 15 15 15 15 16 16 17 17 17 16 16 17 17 18 18
11 11 11 11 12 12 12 12 12 12 12 11 11 10 11 12 12 12 13 13 13 14 14 15 15 15 15 16 16 16 16 15 16 17 18 18 17 17 17 17 18 18 18
13 13 13 13 13 13 13 13 13 14 14 13 13 13 13 13 13 14 14 14 14 15 15 15 16 17 17 17 17 17 17 16 17 17 18 18 18 18 19 19 19 19 19
13 14 14 14 15 14 15 15 15 15 16 16 16 15 15 15 15 15 16 16 16 16 16 17 18 19 19 20 18 18 18 18 19 19 19 19 19 18 19 19 20 20 20
15 15 15 15 16 16 17 16 16 17 17 17 17 16 16 17 17 17 17 18 18 18 19 19 19 19 19 20 20 20 21 21 21 20 19 20 20 18 18 18 20 20 20
15 15 15 16 17 18 18 18 18 19 19 19 19 19 18 19 19 20 20 20 20 20 20 21 21 21 20 21 21 22 22 23 22 21 20 20 20 19 19 18 20 20 20
16 16 17 18 18 19 20 20 20 20 20 21 20 21 21 21 21 22 22 22 22 22 22 22 22 23 22 23 23 23 23 23 23 22 22 21 21 22 22 21 21 21 21
17 18 18 19 19 20 20 21 21 21 21 21 21 22 22 23 23 23 23 23 23 23 23 23 23 24 23 24 24 23 23 23 23 23 23 23 23 23 23 23 22 22 22
19 20 20 20 20 21 21 21 21 21 22 23 23 23 23 23 23 24 24 24 24 24 24 24 24 25 25 24 24 24 24 24 24 24 24 23 23 23 23 23 22 22 22
21 21 21 22 22 22 22 22 22 23 23 23 23 23 24 24 24 24 24 24 24 25 25 25 26 26 25 25 25 25 26 25 25 25 25 25 25 25 24 23 23 23 23
23 23 23 23 23 23 23 23 24 24 24 23 24 24 25 25 25 25 25 25 25 25 26 26 27 27 27 26 26 27 27 27 27 27 26 26 26 25 25 24 24 23 23
25 24 25 24 25 25 25 25 25 26 25 25 26 26 26 27 27 27 27 27 27 27 27 27 27 28 28 28 29 28 28 29 28 28 28 27 26 26 26 26 25 24 24
26 25 25 26 26 26 26 27 27 27 27 28 28 28 28 28 28 28 28 28 28 28 28 29 29 29 30 30 31 31 30 30 29 29 29 28 27 27 27 27 27 26 25
27 27 27 27 28 28 28 28 28 28 29 29 29 29 29 29 29 29 29 29 29 30 30 29 29 29 30 30 30 30 30 30 30 30 30 29 28 28 27 27 26 26 26
28 28 29 29 29 29 29 29 29 29 30 30 29 29 29 29 29 29 29 29 29 29 29 29 29 29 29 29 29 30 30 30 31 30 30 29 29 28 27 27 27 27 27
Wind_Direction
63 67 83 80 73 69 154 180 181 186 191 196 202 207 213 212 218 227 234 239 242 242 242 241 240 246 254 258 264 268 269 273 274 271 270 268 263 261 262 263 265 264 261
41 41 68 71 75 75 93 117 161 185 192 206 216 219 220 214 215 226 236 240 240 237 238 242 246 249 256 265 270 274 274 275 277 273 269 272 267 262 263 265 266 263 261
35 45 43 53 50 49 88 136 164 196 212 227 228 222 220 225 227 236 240 242 244 243 242 245 251 256 260 267 272 279 279 280 283 277 272 273 272 264 262 262 265 260 260
26 33 28 20 12 19 22 70 193 222 222 233 233 232 236 241 244 245 243 247 250 248 246 248 255 260 264 274 278 279 280 283 280 276 276 274 275 267 264 261 263 259 260
13 14 10 6 358 350 335 327 310 286 259 263 253 250 248 246 247 249 248 252 257 255 253 255 259 264 267 276 278 281 280 281 277 272 275 273 274 273 270 264 263 260 260
358 354 351 345 343 335 320 312 314 303 282 269 264 264 257 255 251 246 246 251 258 261 259 257 260 262 267 275 277 280 280 282 279 273 273 275 273 271 273 272 268 262 260
352 350 339 333 330 323 311 311 316 305 286 281 279 274 268 264 259 247 248 253 259 262 261 263 266 266 269 272 275 278 280 280 279 277 277 278 271 268 268 272 269 265 260
331 332 334 331 328 322 311 312 315 314 307 299 285 282 286 282 273 265 263 261 263 267 271 272 272 272 275 276 277 281 282 279 277 278 277 277 276 269 265 265 266 266 264
320 320 325 328 324 316 310 310 317 321 314 312 304 300 296 288 281 275 272 270 269 272 275 278 279 277 280 281 280 282 283 279 275 275 276 276 275 272 269 265 265 264 266
313 316 314 313 316 313 312 311 310 304 305 304 303 299 298 299 285 281 277 274 275 278 281 284 282 280 281 284 283 282 286 284 279 276 275 276 276 272 270 269 266 265 267
306 309 311 312 313 310 308 306 301 300 298 295 296 292 292 290 283 280 278 277 279 281 283 286 286 283 282 284 284 285 286 285 283 280 277 276 274 274 272 273 270 267 270
304 305 306 305 305 301 300 300 298 294 293 291 289 287 286 285 281 276 277 279 283 284 284 284 284 284 284 285 285 287 290 287 285 282 280 276 272 272 273 274 273 272 273
297 297 299 300 300 298 296 294 292 289 289 288 285 284 283 282 280 279 280 282 285 285 284 281 281 282 284 285 286 287 288 289 286 281 279 277 273 272 273 275 273 272 273
295 295 295 296 297 297 293 290 288 288 288 286 284 284 283 283 283 284 284 284 283 285 286 286 285 283 283 284 285 285 286 287 290 286 280 280 277 273 272 274 273 272 271
294 293 292 293 292 293 293 290 287 286 286 286 283 282 282 282 284 286 286 286 285 283 283 284 286 286 284 284 284 285 285 286 288 287 283 280 277 277 274 274 273 272 269
292 291 290 292 293 292 292 290 286 283 284 283 282 280 280 281 282 284 285 284 284 285 284 284 285 286 285 283 284 286 286 287 285 285 282 279 278 279 279 278 275 272 270
291 291 292 293 294 294 293 291 287 284 284 283 280 278 279 281 282 283 283 284 284 284 284 283 285 285 284 283 284 285 286 286 285 284 283 281 279 281 280 279 278 275 272
291 292 292 293 294 294 292 291 289 285 284 283 281 279 279 280 282 283 281 281 282 282 282 283 284 285 284 284 284 284 285 285 284 283 282 281 278 278 278 280 279 277 276
293 294 293 293 293 292 290 288 288 285 284 283 283 283 282 281 281 282 280 280 280 282 281 281 283 284 284 285 284 283 284 284 285 284 283 282 282 281 279 279 277 277 278
294 295 294 293 292 292 290 289 287 286 284 283 283 283 283 283 282 282 281 280 279 279 280 280 281 282 282 283 284 283 283 284 285 284 282 282 280 281 280 277 275 275 277
293 293 294 295 293 291 289 289 288 287 286 284 284 284 284 283 283 282 281 279 279 278 280 280 280 281 281 281 282 282 282 283 284 283 281 281 280 279 278 278 277 276 276
292 293 294 294 293 291 289 288 288 288 286 285 286 286 286 284 283 282 282 279 278 278 279 280 281 281 281 281 281 282 281 282 283 283 282 279 280 279 277 277 277 277 277
291 292 292 292 292 291 289 288 289 289 287 286 286 286 286 284 283 282 281 279 279 279 279 280 280 281 280 280 280 280 281 281 281 281 280 280 279 278 277 278 278 276 276
291 291 291 291 290 291 290 288 288 288 288 287 287 286 285 284 283 282 281 280 279 279 278 279 280 280 280 279 278 279 279 280 279 279 279 279 279 279 278 277 276 275 274
291 292 292 293 291 290 289 289 289 289 289 287 286 286 285 284 284 283 281 280 279 279 278 278 278 279 279 279 278 278 279 279 279 280 280 280 279 278 278 276 274 273 272
291 292 292 292 291 291 289 289 289 289 289 287 285 285 285 285 284 284 283 282 280 279 279 278 279 280 280 280 279 280 280 280 279 278 277 278 278 277 276 274 273 273 272